Year,Month,Day,Hour,Minute,Value (Times are PST for temperature in C)
2014,11,30,00,00,-0.80
2014,11,30,00,01,-0.80
2014,11,30,00,02,-0.80
2014,11,30,00,03,-0.80
2014,11,30,00,04,-0.80
2014,11,30,00,05,-0.80
2014,11,30,00,06,-0.80
2014,11,30,00,07,-0.80
2014,11,30,00,08,-0.90
2014,11,30,00,09,-0.90
2014,11,30,00,10,-0.90
2014,11,30,00,11,-0.90
2014,11,30,00,12,-0.90
2014,11,30,00,13,-0.90
2014,11,30,00,14,-0.90
2014,11,30,00,15,-0.90
2014,11,30,00,16,-0.90
2014,11,30,00,17,-0.90
2014,11,30,00,18,-0.90
2014,11,30,00,19,-0.90
2014,11,30,00,20,-0.80
2014,11,30,00,21,-0.80
2014,11,30,00,22,-0.80
2014,11,30,00,23,-0.80
2014,11,30,00,24,-0.90
2014,11,30,00,25,-1.00
2014,11,30,00,26,-1.10
2014,11,30,00,27,-1.20
2014,11,30,00,28,-1.40
2014,11,30,00,29,-1.50
2014,11,30,00,30,-1.60
2014,11,30,00,31,-1.80
2014,11,30,00,32,-1.90
2014,11,30,00,33,-2.00
2014,11,30,00,34,-2.10
2014,11,30,00,35,-2.20
2014,11,30,00,36,-2.30
2014,11,30,00,37,-2.30
2014,11,30,00,38,-2.40
2014,11,30,00,39,-2.50
2014,11,30,00,40,-2.60
2014,11,30,00,41,-2.60
2014,11,30,00,42,-2.60
2014,11,30,00,43,-2.70
2014,11,30,00,44,-2.70
2014,11,30,00,45,-2.70
2014,11,30,00,46,-2.70
2014,11,30,00,47,-2.70
2014,11,30,00,48,-2.70
2014,11,30,00,49,-2.70
2014,11,30,00,50,-2.70
2014,11,30,00,51,-2.60
2014,11,30,00,52,-2.40
2014,11,30,00,53,-2.20
2014,11,30,00,54,-1.90
2014,11,30,00,55,-1.70
2014,11,30,00,56,-1.50
2014,11,30,00,57,-1.30
2014,11,30,00,58,-1.20
2014,11,30,00,59,-1.10
2014,11,30,01,00,-1.00
2014,11,30,01,01,-1.00
2014,11,30,01,02,-0.90
2014,11,30,01,03,-0.90
2014,11,30,01,04,-0.90
2014,11,30,01,05,-0.80
2014,11,30,01,06,-0.80
2014,11,30,01,07,-0.90
2014,11,30,01,08,-1.00
2014,11,30,01,09,-1.10
2014,11,30,01,10,-1.10
2014,11,30,01,11,-1.10
2014,11,30,01,12,-1.00
2014,11,30,01,13,-1.00
2014,11,30,01,14,-0.90
2014,11,30,01,15,-0.80
2014,11,30,01,16,-0.80
2014,11,30,01,17,-0.70
2014,11,30,01,18,-0.70
2014,11,30,01,19,-0.70
2014,11,30,01,20,-0.70
2014,11,30,01,21,-0.70
2014,11,30,01,22,-0.70
2014,11,30,01,23,-0.70
2014,11,30,01,24,-0.70
2014,11,30,01,25,-0.70
2014,11,30,01,26,-0.70
2014,11,30,01,27,-0.60
2014,11,30,01,28,-0.60
2014,11,30,01,29,-0.60
2014,11,30,01,30,-0.60
2014,11,30,01,31,-0.60
2014,11,30,01,32,-0.60
2014,11,30,01,33,-0.60
2014,11,30,01,34,-0.60
2014,11,30,01,35,-0.70
2014,11,30,01,36,-0.70
2014,11,30,01,37,-0.70
2014,11,30,01,38,-0.70
2014,11,30,01,39,-0.70
2014,11,30,01,40,-0.70
2014,11,30,01,41,-0.70
2014,11,30,01,42,-0.60
2014,11,30,01,43,-0.60
2014,11,30,01,44,-0.60
2014,11,30,01,45,-0.60
2014,11,30,01,46,-0.60
2014,11,30,01,47,-0.60
2014,11,30,01,48,-0.60
2014,11,30,01,49,-0.60
2014,11,30,01,50,-0.70
2014,11,30,01,51,-0.90
2014,11,30,01,52,-1.10
2014,11,30,01,53,-1.20
2014,11,30,01,54,-1.40
2014,11,30,01,55,-1.50
2014,11,30,01,56,-1.60
2014,11,30,01,57,-1.80
2014,11,30,01,58,-1.90
2014,11,30,01,59,-2.00
2014,11,30,02,00,-2.10
2014,11,30,02,01,-2.10
2014,11,30,02,02,-2.20
2014,11,30,02,03,-2.30
2014,11,30,02,04,-2.30
2014,11,30,02,05,-2.40
2014,11,30,02,06,-2.50
2014,11,30,02,07,-2.50
2014,11,30,02,08,-2.60
2014,11,30,02,09,-2.70
2014,11,30,02,10,-2.70
2014,11,30,02,11,-2.80
2014,11,30,02,12,-2.80
2014,11,30,02,13,-2.80
2014,11,30,02,14,-2.90
2014,11,30,02,15,-2.90
2014,11,30,02,16,-2.90
2014,11,30,02,17,-3.00
2014,11,30,02,18,-3.00
2014,11,30,02,19,-3.00
2014,11,30,02,20,-3.10
2014,11,30,02,21,-3.10
2014,11,30,02,22,-3.10
2014,11,30,02,23,-3.10
2014,11,30,02,24,-3.10
2014,11,30,02,25,-3.10
2014,11,30,02,26,-3.20
2014,11,30,02,27,-3.20
2014,11,30,02,28,-3.20
2014,11,30,02,29,-3.20
2014,11,30,02,30,-3.20
2014,11,30,02,31,-3.20
2014,11,30,02,32,-3.20
2014,11,30,02,33,-3.20
2014,11,30,02,34,-3.20
2014,11,30,02,35,-3.20
2014,11,30,02,36,-3.30
2014,11,30,02,37,-3.30
2014,11,30,02,38,-3.30
2014,11,30,02,39,-3.30
2014,11,30,02,40,-3.30
2014,11,30,02,41,-3.30
2014,11,30,02,42,-3.30
2014,11,30,02,43,-3.40
2014,11,30,02,44,-3.40
2014,11,30,02,45,-3.40
2014,11,30,02,46,-3.40
2014,11,30,02,47,-3.50
2014,11,30,02,48,-3.50
2014,11,30,02,49,-3.50
2014,11,30,02,50,-3.50
2014,11,30,02,51,-3.50
2014,11,30,02,52,-3.50
2014,11,30,02,53,-3.50
2014,11,30,02,54,-3.60
2014,11,30,02,55,-3.60
2014,11,30,02,56,-3.60
2014,11,30,02,57,-3.60
2014,11,30,02,58,-3.60
2014,11,30,02,59,-3.60
2014,11,30,03,00,-3.60
2014,11,30,03,01,-3.70
2014,11,30,03,02,-3.70
2014,11,30,03,03,-3.70
2014,11,30,03,04,-3.70
2014,11,30,03,05,-3.70
2014,11,30,03,06,-3.70
2014,11,30,03,07,-3.70
2014,11,30,03,08,-3.70
2014,11,30,03,09,-3.80
2014,11,30,03,10,-3.80
2014,11,30,03,11,-3.80
2014,11,30,03,12,-3.80
2014,11,30,03,13,-3.80
2014,11,30,03,14,-3.80
2014,11,30,03,15,-3.80
2014,11,30,03,16,-3.80
2014,11,30,03,17,-3.80
2014,11,30,03,18,-3.80
2014,11,30,03,19,-3.80
2014,11,30,03,20,-3.80
2014,11,30,03,21,-3.80
2014,11,30,03,22,-3.80
2014,11,30,03,23,-3.80
2014,11,30,03,24,-3.80
2014,11,30,03,25,-3.80
2014,11,30,03,26,-3.80
2014,11,30,03,27,-3.80
2014,11,30,03,28,-3.80
2014,11,30,03,29,-3.80
2014,11,30,03,30,-3.80
2014,11,30,03,31,-3.80
2014,11,30,03,32,-3.80
2014,11,30,03,33,-3.80
2014,11,30,03,34,-3.80
2014,11,30,03,35,-3.80
2014,11,30,03,36,-3.80
2014,11,30,03,37,-3.80
2014,11,30,03,38,-3.70
2014,11,30,03,39,-3.70
2014,11,30,03,40,-3.70
2014,11,30,03,41,-3.70
2014,11,30,03,42,-3.70
2014,11,30,03,43,-3.70
2014,11,30,03,44,-3.70
2014,11,30,03,45,-3.80
2014,11,30,03,46,-3.80
2014,11,30,03,47,-3.80
2014,11,30,03,48,-3.80
2014,11,30,03,49,-3.90
2014,11,30,03,50,-3.90
2014,11,30,03,51,-3.90
2014,11,30,03,52,-3.90
2014,11,30,03,53,-3.90
2014,11,30,03,54,-3.90
2014,11,30,03,55,-4.00
2014,11,30,03,56,-4.00
2014,11,30,03,57,-4.00
2014,11,30,03,58,-4.00
2014,11,30,03,59,-4.00
2014,11,30,04,00,-4.00
2014,11,30,04,01,-4.00
2014,11,30,04,02,-4.00
2014,11,30,04,03,-4.00
2014,11,30,04,04,-4.00
2014,11,30,04,05,-4.00
2014,11,30,04,06,-4.00
2014,11,30,04,07,-4.00
2014,11,30,04,08,-4.00
2014,11,30,04,09,-4.00
2014,11,30,04,10,-4.00
2014,11,30,04,11,-4.00
2014,11,30,04,12,-4.10
2014,11,30,04,13,-4.10
2014,11,30,04,14,-4.00
2014,11,30,04,15,-4.00
2014,11,30,04,16,-4.10
2014,11,30,04,17,-4.00
2014,11,30,04,18,-4.00
2014,11,30,04,19,-4.00
2014,11,30,04,20,-4.00
2014,11,30,04,21,-4.00
2014,11,30,04,22,-3.90
2014,11,30,04,23,-3.90
2014,11,30,04,24,-3.90
2014,11,30,04,25,-3.90
2014,11,30,04,26,-3.90
2014,11,30,04,27,-3.90
2014,11,30,04,28,-3.90
2014,11,30,04,29,-3.80
2014,11,30,04,30,-3.90
2014,11,30,04,31,-3.90
2014,11,30,04,32,-3.90
2014,11,30,04,33,-3.90
2014,11,30,04,34,-3.90
2014,11,30,04,35,-3.90
2014,11,30,04,36,-3.90
2014,11,30,04,37,-3.90
2014,11,30,04,38,-3.90
2014,11,30,04,39,-3.80
2014,11,30,04,40,-3.80
2014,11,30,04,41,-3.80
2014,11,30,04,42,-3.80
2014,11,30,04,43,-3.80
2014,11,30,04,44,-3.80
2014,11,30,04,45,-3.80
2014,11,30,04,46,-3.80
2014,11,30,04,47,-3.80
2014,11,30,04,48,-3.90
2014,11,30,04,49,-3.90
2014,11,30,04,50,-3.90
2014,11,30,04,51,-3.90
2014,11,30,04,52,-3.90
2014,11,30,04,53,-3.80
2014,11,30,04,54,-3.80
2014,11,30,04,55,-3.80
2014,11,30,04,56,-3.80
2014,11,30,04,57,-3.90
2014,11,30,04,58,-3.90
2014,11,30,04,59,-3.90
2014,11,30,05,00,-3.90
2014,11,30,05,01,-3.90
2014,11,30,05,02,-3.90
2014,11,30,05,03,-3.90
2014,11,30,05,04,-3.90
2014,11,30,05,05,-3.90
2014,11,30,05,06,-3.90
2014,11,30,05,07,-3.90
2014,11,30,05,08,-4.00
2014,11,30,05,09,-4.00
2014,11,30,05,10,-4.00
2014,11,30,05,11,-4.00
2014,11,30,05,12,-4.10
2014,11,30,05,13,-4.10
2014,11,30,05,14,-4.10
2014,11,30,05,15,-4.10
2014,11,30,05,16,-4.10
2014,11,30,05,17,-4.20
2014,11,30,05,18,-4.20
2014,11,30,05,19,-4.20
2014,11,30,05,20,-4.20
2014,11,30,05,21,-4.20
2014,11,30,05,22,-4.20
2014,11,30,05,23,-4.20
2014,11,30,05,24,-4.10
2014,11,30,05,25,-4.10
2014,11,30,05,26,-4.10
2014,11,30,05,27,-4.10
2014,11,30,05,28,-4.10
2014,11,30,05,29,-4.10
2014,11,30,05,30,-4.10
2014,11,30,05,31,-4.10
2014,11,30,05,32,-4.10
2014,11,30,05,33,-4.10
2014,11,30,05,34,-4.10
2014,11,30,05,35,-4.10
2014,11,30,05,36,-4.10
2014,11,30,05,37,-4.10
2014,11,30,05,38,-4.10
2014,11,30,05,39,-4.20
2014,11,30,05,40,-4.20
2014,11,30,05,41,-4.20
2014,11,30,05,42,-4.20
2014,11,30,05,43,-4.10
2014,11,30,05,44,-4.10
2014,11,30,05,45,-4.10
2014,11,30,05,46,-4.00
2014,11,30,05,47,-4.00
2014,11,30,05,48,-3.90
2014,11,30,05,49,-3.90
2014,11,30,05,50,-3.90
2014,11,30,05,51,-3.80
2014,11,30,05,52,-3.80
2014,11,30,05,53,-3.80
2014,11,30,05,54,-3.80
2014,11,30,05,55,-3.80
2014,11,30,05,56,-3.70
2014,11,30,05,57,-3.70
2014,11,30,05,58,-3.70
2014,11,30,05,59,-3.70
2014,11,30,06,00,-3.70
2014,11,30,06,01,-3.70
2014,11,30,06,02,-3.70
2014,11,30,06,03,-3.70
2014,11,30,06,04,-3.70
2014,11,30,06,05,-3.70
2014,11,30,06,06,-3.70
2014,11,30,06,07,-3.70
2014,11,30,06,08,-3.70
2014,11,30,06,09,-3.70
2014,11,30,06,10,-3.70
2014,11,30,06,11,-3.70
2014,11,30,06,12,-3.70
2014,11,30,06,13,-3.70
2014,11,30,06,14,-3.70
2014,11,30,06,15,-3.70
2014,11,30,06,16,-3.70
2014,11,30,06,17,-3.70
2014,11,30,06,18,-3.60
2014,11,30,06,19,-3.60
2014,11,30,06,20,-3.60
2014,11,30,06,21,-3.60
2014,11,30,06,22,-3.60
2014,11,30,06,23,-3.60
2014,11,30,06,24,-3.60
2014,11,30,06,25,-3.60
2014,11,30,06,26,-3.60
2014,11,30,06,27,-3.60
2014,11,30,06,28,-3.60
2014,11,30,06,29,-3.50
2014,11,30,06,30,-3.60
2014,11,30,06,31,-3.60
2014,11,30,06,32,-3.60
2014,11,30,06,33,-3.60
2014,11,30,06,34,-3.50
2014,11,30,06,35,-3.50
2014,11,30,06,36,-3.50
2014,11,30,06,37,-3.50
2014,11,30,06,38,-3.50
2014,11,30,06,39,-3.50
2014,11,30,06,40,-3.50
2014,11,30,06,41,-3.50
2014,11,30,06,42,-3.50
2014,11,30,06,43,-3.50
2014,11,30,06,44,-3.50
2014,11,30,06,45,-3.50
2014,11,30,06,46,-3.50
2014,11,30,06,47,-3.40
2014,11,30,06,48,-3.40
2014,11,30,06,49,-3.40
2014,11,30,06,50,-3.40
2014,11,30,06,51,-3.40
2014,11,30,06,52,-3.40
2014,11,30,06,53,-3.40
2014,11,30,06,54,-3.40
2014,11,30,06,55,-3.40
2014,11,30,06,56,-3.40
2014,11,30,06,57,-3.30
2014,11,30,06,58,-3.30
2014,11,30,06,59,-3.30
2014,11,30,07,00,-3.30
2014,11,30,07,01,-3.30
2014,11,30,07,02,-3.30
2014,11,30,07,03,-3.30
2014,11,30,07,04,-3.30
2014,11,30,07,05,-3.30
2014,11,30,07,06,-3.30
2014,11,30,07,07,-3.30
2014,11,30,07,08,-3.40
2014,11,30,07,09,-3.40
2014,11,30,07,10,-3.40
2014,11,30,07,11,-3.40
2014,11,30,07,12,-3.50
2014,11,30,07,13,-3.50
2014,11,30,07,14,-3.50
2014,11,30,07,15,-3.60
2014,11,30,07,16,-3.60
2014,11,30,07,17,-3.60
2014,11,30,07,18,-3.60
2014,11,30,07,19,-3.60
2014,11,30,07,20,-3.60
2014,11,30,07,21,-3.60
2014,11,30,07,22,-3.60
2014,11,30,07,23,-3.60
2014,11,30,07,24,-3.60
2014,11,30,07,25,-3.60
2014,11,30,07,26,-3.60
2014,11,30,07,27,-3.60
2014,11,30,07,28,-3.60
2014,11,30,07,29,-3.60
2014,11,30,07,30,-3.70
2014,11,30,07,31,-3.70
2014,11,30,07,32,-3.70
2014,11,30,07,33,-3.70
2014,11,30,07,34,-3.60
2014,11,30,07,35,-3.60
2014,11,30,07,36,-3.60
2014,11,30,07,37,-3.60
2014,11,30,07,38,-3.60
2014,11,30,07,39,-3.60
2014,11,30,07,40,-3.60
2014,11,30,07,41,-3.60
2014,11,30,07,42,-3.60
2014,11,30,07,43,-3.60
2014,11,30,07,44,-3.60
2014,11,30,07,45,-3.60
2014,11,30,07,46,-3.60
2014,11,30,07,47,-3.60
2014,11,30,07,48,-3.60
2014,11,30,07,49,-3.60
2014,11,30,07,50,-3.60
2014,11,30,07,51,-3.50
2014,11,30,07,52,-3.50
2014,11,30,07,53,-3.50
2014,11,30,07,54,-3.50
2014,11,30,07,55,-3.60
2014,11,30,07,56,-3.60
2014,11,30,07,57,-3.60
2014,11,30,07,58,-3.60
2014,11,30,07,59,-3.60
2014,11,30,08,00,-3.60
2014,11,30,08,01,-3.60
2014,11,30,08,02,-3.60
2014,11,30,08,03,-3.60
2014,11,30,08,04,-3.50
2014,11,30,08,05,-3.50
2014,11,30,08,06,-3.50
2014,11,30,08,07,-3.50
2014,11,30,08,08,-3.50
2014,11,30,08,09,-3.50
2014,11,30,08,10,-3.40
2014,11,30,08,11,-3.40
2014,11,30,08,12,-3.40
2014,11,30,08,13,-3.40
2014,11,30,08,14,-3.30
2014,11,30,08,15,-3.30
2014,11,30,08,16,-3.30
2014,11,30,08,17,-3.20
2014,11,30,08,18,-3.20
2014,11,30,08,19,-3.20
2014,11,30,08,20,-3.20
2014,11,30,08,21,-3.20
2014,11,30,08,22,-3.20
2014,11,30,08,23,-3.20
2014,11,30,08,24,-3.20
2014,11,30,08,25,-3.20
2014,11,30,08,26,-3.20
2014,11,30,08,27,-3.10
2014,11,30,08,28,-3.10
2014,11,30,08,29,-3.10
2014,11,30,08,30,-3.10
2014,11,30,08,31,-3.10
2014,11,30,08,32,-3.00
2014,11,30,08,33,-3.00
2014,11,30,08,34,-3.00
2014,11,30,08,35,-3.00
2014,11,30,08,36,-3.00
2014,11,30,08,37,-3.00
2014,11,30,08,38,-2.90
2014,11,30,08,39,-2.90
2014,11,30,08,40,-2.90
2014,11,30,08,41,-2.90
2014,11,30,08,42,-2.80
2014,11,30,08,43,-2.80
2014,11,30,08,44,-2.80
2014,11,30,08,45,-2.80
2014,11,30,08,46,-2.80
2014,11,30,08,47,-2.80
2014,11,30,08,48,-2.70
2014,11,30,08,49,-2.70
2014,11,30,08,50,-2.70
2014,11,30,08,51,-2.60
2014,11,30,08,52,-2.60
2014,11,30,08,53,-2.60
2014,11,30,08,54,-2.60
2014,11,30,08,55,-2.50
2014,11,30,08,56,-2.50
2014,11,30,08,57,-2.50
2014,11,30,08,58,-2.40
2014,11,30,08,59,-2.40
2014,11,30,09,00,-2.40
2014,11,30,09,01,-2.40
2014,11,30,09,02,-2.40
2014,11,30,09,03,-2.30
2014,11,30,09,04,-2.30
2014,11,30,09,05,-2.30
2014,11,30,09,06,-2.30
2014,11,30,09,07,-2.30
2014,11,30,09,08,-2.20
2014,11,30,09,09,-2.20
2014,11,30,09,10,-2.20
2014,11,30,09,11,-2.20
2014,11,30,09,12,-2.20
2014,11,30,09,13,-2.20
2014,11,30,09,14,-2.10
2014,11,30,09,15,-2.10
2014,11,30,09,16,-2.10
2014,11,30,09,17,-2.10
2014,11,30,09,18,-2.10
2014,11,30,09,19,-2.00
2014,11,30,09,20,-2.00
2014,11,30,09,21,-2.00
2014,11,30,09,22,-2.00
2014,11,30,09,23,-2.00
2014,11,30,09,24,-1.90
2014,11,30,09,25,-1.90
2014,11,30,09,26,-1.90
2014,11,30,09,27,-1.90
2014,11,30,09,28,-1.80
2014,11,30,09,29,-1.80
2014,11,30,09,30,-1.80
2014,11,30,09,31,-1.80
2014,11,30,09,32,-1.80
2014,11,30,09,33,-1.70
2014,11,30,09,34,-1.70
2014,11,30,09,35,-1.60
2014,11,30,09,36,-1.60
2014,11,30,09,37,-1.60
2014,11,30,09,38,-1.50
2014,11,30,09,39,-1.50
2014,11,30,09,40,-1.50
2014,11,30,09,41,-1.50
2014,11,30,09,42,-1.50
2014,11,30,09,43,-1.50
2014,11,30,09,44,-1.50
2014,11,30,09,45,-1.50
2014,11,30,09,46,-1.50
2014,11,30,09,47,-1.50
2014,11,30,09,48,-1.50
2014,11,30,09,49,-1.50
2014,11,30,09,50,-1.50
2014,11,30,09,51,-1.50
2014,11,30,09,52,-1.40
2014,11,30,09,53,-1.40
2014,11,30,09,54,-1.40
2014,11,30,09,55,-1.30
2014,11,30,09,56,-1.30
2014,11,30,09,57,-1.30
2014,11,30,09,58,-1.30
2014,11,30,09,59,-1.30
2014,11,30,10,00,-1.20
2014,11,30,10,01,-1.20
2014,11,30,10,02,-1.20
2014,11,30,10,03,-1.10
2014,11,30,10,04,-1.10
2014,11,30,10,05,-1.10
2014,11,30,10,06,-1.10
2014,11,30,10,07,-1.10
2014,11,30,10,08,-1.10
2014,11,30,10,09,-1.10
2014,11,30,10,10,-1.10
2014,11,30,10,11,-1.10
2014,11,30,10,12,-1.10
2014,11,30,10,13,-1.00
2014,11,30,10,14,-1.00
2014,11,30,10,15,-0.90
2014,11,30,10,16,-0.90
2014,11,30,10,17,-0.80
2014,11,30,10,18,-0.80
2014,11,30,10,19,-0.70
2014,11,30,10,20,-0.60
2014,11,30,10,21,-0.50
2014,11,30,10,22,-0.50
2014,11,30,10,23,-0.40
2014,11,30,10,24,-0.30
2014,11,30,10,25,-0.20
2014,11,30,10,26,-0.20
2014,11,30,10,27,-0.10
2014,11,30,10,28,-0.10
2014,11,30,10,29,-0.10
2014,11,30,10,30,0.00
2014,11,30,10,31,0.00
2014,11,30,10,32,0.10
2014,11,30,10,33,0.10
2014,11,30,10,34,0.20
2014,11,30,10,35,0.20
2014,11,30,10,36,0.20
2014,11,30,10,37,0.20
2014,11,30,10,38,0.20
2014,11,30,10,39,0.20
2014,11,30,10,40,0.30
2014,11,30,10,41,0.30
2014,11,30,10,42,0.30
2014,11,30,10,43,0.30
2014,11,30,10,44,0.30
2014,11,30,10,45,0.30
2014,11,30,10,46,0.30
2014,11,30,10,47,0.30
2014,11,30,10,48,0.40
2014,11,30,10,49,0.40
2014,11,30,10,50,0.40
2014,11,30,10,51,0.40
2014,11,30,10,52,0.50
2014,11,30,10,53,0.50
2014,11,30,10,54,0.50
2014,11,30,10,55,0.50
2014,11,30,10,56,0.50
2014,11,30,10,57,0.40
2014,11,30,10,58,0.40
2014,11,30,10,59,0.40
2014,11,30,11,00,0.40
2014,11,30,11,01,0.40
2014,11,30,11,02,0.40
2014,11,30,11,03,0.40
2014,11,30,11,04,0.40
2014,11,30,11,05,0.40
2014,11,30,11,06,0.40
2014,11,30,11,07,0.50
2014,11,30,11,08,0.50
2014,11,30,11,09,0.40
2014,11,30,11,10,0.40
2014,11,30,11,11,0.50
2014,11,30,11,12,0.50
2014,11,30,11,13,0.60
2014,11,30,11,14,0.60
2014,11,30,11,15,0.60
2014,11,30,11,16,0.70
2014,11,30,11,17,0.70
2014,11,30,11,18,0.70
2014,11,30,11,19,0.70
2014,11,30,11,20,0.70
2014,11,30,11,21,0.70
2014,11,30,11,22,0.70
2014,11,30,11,23,0.60
2014,11,30,11,24,0.60
2014,11,30,11,25,0.70
2014,11,30,11,26,0.70
2014,11,30,11,27,0.70
2014,11,30,11,28,0.80
2014,11,30,11,29,0.80
2014,11,30,11,30,0.80
2014,11,30,11,31,0.80
2014,11,30,11,32,0.80
2014,11,30,11,33,0.80
2014,11,30,11,34,0.80
2014,11,30,11,35,0.80
2014,11,30,11,36,0.80
2014,11,30,11,37,0.80
2014,11,30,11,38,0.80
2014,11,30,11,39,0.80
2014,11,30,11,40,0.80
2014,11,30,11,41,0.70
2014,11,30,11,42,0.70
2014,11,30,11,43,0.70
2014,11,30,11,44,0.70
2014,11,30,11,45,0.70
2014,11,30,11,46,0.70
2014,11,30,11,47,0.70
2014,11,30,11,48,0.70
2014,11,30,11,49,0.70
2014,11,30,11,50,0.70
2014,11,30,11,51,0.70
2014,11,30,11,52,0.70
2014,11,30,11,53,0.70
2014,11,30,11,54,0.70
2014,11,30,11,55,0.70
2014,11,30,11,56,0.70
2014,11,30,11,57,0.70
2014,11,30,11,58,0.70
2014,11,30,11,59,0.70
2014,11,30,12,00,0.70
2014,11,30,12,01,0.70
2014,11,30,12,02,0.70
2014,11,30,12,03,0.70
2014,11,30,12,04,0.80
2014,11,30,12,05,0.80
2014,11,30,12,06,0.80
2014,11,30,12,07,0.80
2014,11,30,12,08,0.80
2014,11,30,12,09,0.80
2014,11,30,12,10,0.80
2014,11,30,12,11,0.80
2014,11,30,12,12,0.80
2014,11,30,12,13,0.80
2014,11,30,12,14,0.90
2014,11,30,12,15,0.90
2014,11,30,12,16,0.90
2014,11,30,12,17,0.90
2014,11,30,12,18,0.90
2014,11,30,12,19,0.90
2014,11,30,12,20,0.90
2014,11,30,12,21,1.00
2014,11,30,12,22,1.00
2014,11,30,12,23,1.00
2014,11,30,12,24,1.00
2014,11,30,12,25,1.10
2014,11,30,12,26,1.10
2014,11,30,12,27,1.10
2014,11,30,12,28,1.10
2014,11,30,12,29,1.10
2014,11,30,12,30,1.10
2014,11,30,12,31,1.10
2014,11,30,12,32,1.10
2014,11,30,12,33,1.10
2014,11,30,12,34,1.10
2014,11,30,12,35,1.00
2014,11,30,12,36,1.00
2014,11,30,12,37,1.10
2014,11,30,12,38,1.10
2014,11,30,12,39,1.10
2014,11,30,12,40,1.10
2014,11,30,12,41,1.10
2014,11,30,12,42,1.10
2014,11,30,12,43,1.10
2014,11,30,12,44,1.10
2014,11,30,12,45,1.10
2014,11,30,12,46,1.10
2014,11,30,12,47,1.10
2014,11,30,12,48,1.10
2014,11,30,12,49,1.10
2014,11,30,12,50,1.10
2014,11,30,12,51,1.10
2014,11,30,12,52,1.10
2014,11,30,12,53,1.10
2014,11,30,12,54,1.10
2014,11,30,12,55,1.10
2014,11,30,12,56,1.10
2014,11,30,12,57,1.10
2014,11,30,12,58,1.10
2014,11,30,12,59,1.20
2014,11,30,13,00,1.20
2014,11,30,13,01,1.20
2014,11,30,13,02,1.20
2014,11,30,13,03,1.20
2014,11,30,13,04,1.20
2014,11,30,13,05,1.20
2014,11,30,13,06,1.20
2014,11,30,13,07,1.20
2014,11,30,13,08,1.30
2014,11,30,13,09,1.20
2014,11,30,13,10,1.20
2014,11,30,13,11,1.20
2014,11,30,13,12,1.20
2014,11,30,13,13,1.20
2014,11,30,13,14,1.20
2014,11,30,13,15,1.20
2014,11,30,13,16,1.20
2014,11,30,13,17,1.20
2014,11,30,13,18,1.20
2014,11,30,13,19,1.20
2014,11,30,13,20,1.20
2014,11,30,13,21,1.20
2014,11,30,13,22,1.20
2014,11,30,13,23,1.20
2014,11,30,13,24,1.30
2014,11,30,13,25,1.30
2014,11,30,13,26,1.30
2014,11,30,13,27,1.30
2014,11,30,13,28,1.30
2014,11,30,13,29,1.30
2014,11,30,13,30,1.30
2014,11,30,13,31,1.30
2014,11,30,13,32,1.30
2014,11,30,13,33,1.40
2014,11,30,13,34,1.40
2014,11,30,13,35,1.40
2014,11,30,13,36,1.40
2014,11,30,13,37,1.40
2014,11,30,13,38,1.40
2014,11,30,13,39,1.30
2014,11,30,13,40,1.30
2014,11,30,13,41,1.30
2014,11,30,13,42,1.30
2014,11,30,13,43,1.30
2014,11,30,13,44,1.30
2014,11,30,13,45,1.30
2014,11,30,13,46,1.40
2014,11,30,13,47,1.40
2014,11,30,13,48,1.40
2014,11,30,13,49,1.40
2014,11,30,13,50,1.30
2014,11,30,13,51,1.30
2014,11,30,13,52,1.30
2014,11,30,13,53,1.30
2014,11,30,13,54,1.30
2014,11,30,13,55,1.30
2014,11,30,13,56,1.30
2014,11,30,13,57,1.40
2014,11,30,13,58,1.40
2014,11,30,13,59,1.40
2014,11,30,14,00,1.40
2014,11,30,14,01,1.40
2014,11,30,14,02,1.30
2014,11,30,14,03,1.30
2014,11,30,14,04,1.30
2014,11,30,14,05,1.30
2014,11,30,14,06,1.30
2014,11,30,14,07,1.30
2014,11,30,14,08,1.30
2014,11,30,14,09,1.40
2014,11,30,14,10,1.40
2014,11,30,14,11,1.50
2014,11,30,14,12,1.50
2014,11,30,14,13,1.50
2014,11,30,14,14,1.50
2014,11,30,14,15,1.50
2014,11,30,14,16,1.40
2014,11,30,14,17,1.30
2014,11,30,14,18,1.30
2014,11,30,14,19,1.30
2014,11,30,14,20,1.30
2014,11,30,14,21,1.30
2014,11,30,14,22,1.30
2014,11,30,14,23,1.30
2014,11,30,14,24,1.30
2014,11,30,14,25,1.30
2014,11,30,14,26,1.30
2014,11,30,14,27,1.30
2014,11,30,14,28,1.30
2014,11,30,14,29,1.30
2014,11,30,14,30,1.30
2014,11,30,14,31,1.30
2014,11,30,14,32,1.30
2014,11,30,14,33,1.30
2014,11,30,14,34,1.30
2014,11,30,14,35,1.30
2014,11,30,14,36,1.30
2014,11,30,14,37,1.30
2014,11,30,14,38,1.30
2014,11,30,14,39,1.30
2014,11,30,14,40,1.30
2014,11,30,14,41,1.30
2014,11,30,14,42,1.30
2014,11,30,14,43,1.30
2014,11,30,14,44,1.30
2014,11,30,14,45,1.30
2014,11,30,14,46,1.30
2014,11,30,14,47,1.30
2014,11,30,14,48,1.40
2014,11,30,14,49,1.40
2014,11,30,14,50,1.40
2014,11,30,14,51,1.40
2014,11,30,14,52,1.40
2014,11,30,14,53,1.40
2014,11,30,14,54,1.40
2014,11,30,14,55,1.40
2014,11,30,14,56,1.30
2014,11,30,14,57,1.30
2014,11,30,14,58,1.30
2014,11,30,14,59,1.30
2014,11,30,15,00,1.30
2014,11,30,15,01,1.30
2014,11,30,15,02,1.30
2014,11,30,15,03,1.30
2014,11,30,15,04,1.30
2014,11,30,15,05,1.30
2014,11,30,15,06,1.30
2014,11,30,15,07,1.30
2014,11,30,15,08,1.30
2014,11,30,15,09,1.40
2014,11,30,15,10,1.40
2014,11,30,15,11,1.40
2014,11,30,15,12,1.40
2014,11,30,15,13,1.40
2014,11,30,15,14,1.40
2014,11,30,15,15,1.40
2014,11,30,15,16,1.40
2014,11,30,15,17,1.40
2014,11,30,15,18,1.50
2014,11,30,15,19,1.50
2014,11,30,15,20,1.50
2014,11,30,15,21,1.50
2014,11,30,15,22,1.50
2014,11,30,15,23,1.50
2014,11,30,15,24,1.50
2014,11,30,15,25,1.40
2014,11,30,15,26,1.40
2014,11,30,15,27,1.40
2014,11,30,15,28,1.40
2014,11,30,15,29,1.30
2014,11,30,15,30,1.30
2014,11,30,15,31,1.30
2014,11,30,15,32,1.30
2014,11,30,15,33,1.30
2014,11,30,15,34,1.30
2014,11,30,15,35,1.30
2014,11,30,15,36,1.30
2014,11,30,15,37,1.30
2014,11,30,15,38,1.30
2014,11,30,15,39,1.30
2014,11,30,15,40,1.30
2014,11,30,15,41,1.30
2014,11,30,15,42,1.30
2014,11,30,15,43,1.30
2014,11,30,15,44,1.30
2014,11,30,15,45,1.30
2014,11,30,15,46,1.30
2014,11,30,15,47,1.30
2014,11,30,15,48,1.30
2014,11,30,15,49,1.30
2014,11,30,15,50,1.30
2014,11,30,15,51,1.30
2014,11,30,15,52,1.30
2014,11,30,15,53,1.30
2014,11,30,15,54,1.30
2014,11,30,15,55,1.30
2014,11,30,15,56,1.30
2014,11,30,15,57,1.30
2014,11,30,15,58,1.30
2014,11,30,15,59,1.30
2014,11,30,16,00,1.20
2014,11,30,16,01,1.20
2014,11,30,16,02,1.20
2014,11,30,16,03,1.20
2014,11,30,16,04,1.20
2014,11,30,16,05,1.20
2014,11,30,16,06,1.20
2014,11,30,16,07,1.10
2014,11,30,16,08,1.10
2014,11,30,16,09,1.10
2014,11,30,16,10,1.10
2014,11,30,16,11,1.10
2014,11,30,16,12,1.10
2014,11,30,16,13,1.10
2014,11,30,16,14,1.10
2014,11,30,16,15,1.00
2014,11,30,16,16,1.00
2014,11,30,16,17,1.00
2014,11,30,16,18,1.00
2014,11,30,16,19,1.00
2014,11,30,16,20,1.00
2014,11,30,16,21,1.00
2014,11,30,16,22,1.00
2014,11,30,16,23,1.00
2014,11,30,16,24,0.90
2014,11,30,16,25,0.90
2014,11,30,16,26,0.90
2014,11,30,16,27,0.90
2014,11,30,16,28,0.80
2014,11,30,16,29,0.80
2014,11,30,16,30,0.80
2014,11,30,16,31,0.70
2014,11,30,16,32,0.70
2014,11,30,16,33,0.70
2014,11,30,16,34,0.70
2014,11,30,16,35,0.70
2014,11,30,16,36,0.60
2014,11,30,16,37,0.60
2014,11,30,16,38,0.60
2014,11,30,16,39,0.50
2014,11,30,16,40,0.50
2014,11,30,16,41,0.40
2014,11,30,16,42,0.30
2014,11,30,16,43,0.30
2014,11,30,16,44,0.30
2014,11,30,16,45,0.20
2014,11,30,16,46,0.20
2014,11,30,16,47,0.20
2014,11,30,16,48,0.10
2014,11,30,16,49,0.10
2014,11,30,16,50,0.10
2014,11,30,16,51,0.10
2014,11,30,16,52,0.00
2014,11,30,16,53,0.00
2014,11,30,16,54,0.00
2014,11,30,16,55,0.00
2014,11,30,16,56,0.00
2014,11,30,16,57,0.00
2014,11,30,16,58,0.00
2014,11,30,16,59,0.00
2014,11,30,17,00,0.00
2014,11,30,17,01,0.00
2014,11,30,17,02,0.00
2014,11,30,17,03,0.00
2014,11,30,17,04,0.00
2014,11,30,17,05,0.00
2014,11,30,17,06,0.00
2014,11,30,17,07,0.10
2014,11,30,17,08,0.10
2014,11,30,17,09,0.10
2014,11,30,17,10,0.10
2014,11,30,17,11,0.10
2014,11,30,17,12,0.10
2014,11,30,17,13,0.10
2014,11,30,17,14,0.10
2014,11,30,17,15,0.10
2014,11,30,17,16,0.10
2014,11,30,17,17,0.10
2014,11,30,17,18,0.10
2014,11,30,17,19,0.10
2014,11,30,17,20,0.10
2014,11,30,17,21,0.10
2014,11,30,17,22,0.20
2014,11,30,17,23,0.20
2014,11,30,17,24,0.20
2014,11,30,17,25,0.20
2014,11,30,17,26,0.20
2014,11,30,17,27,0.20
2014,11,30,17,28,0.20
2014,11,30,17,29,0.20
2014,11,30,17,30,0.20
2014,11,30,17,31,0.20
2014,11,30,17,32,0.20
2014,11,30,17,33,0.10
2014,11,30,17,34,0.10
2014,11,30,17,35,0.10
2014,11,30,17,36,0.10
2014,11,30,17,37,0.00
2014,11,30,17,38,0.00